Regional Weather Roundup
Issued by NWS

Home | Current Version | Previous Version | Text Only | Print | Product List | Glossary Off
Versions: 1 2 3 4 5 6 7 8 9 10 11 12 13 14 15 16 17 18 19 20 21 22 23 24 25 26 27 28 29 30 31 32 33 34 35 36 37 38 39 40 41 42 43 44 45 46 47 48 49 50

000
ASUS44 KMEG 261910
RWRTN
TENNESSEE HOURLY STATE WEATHER ROUNDUP
NATIONAL WEATHER SERVICE MEMPHIS TN
100 PM CST MON JAN 26 2015

TNZ002-004-019-021-049-052-054-088>092-262000-
WEST TENNESSEE

CITY           SKY/WX    TMP DP  RH WIND       PRES   REMARKS
MEMPHIS INTL   PTSUNNY   45  31  58 SW9       30.08F
NWS MEMPHIS      N/A     43 N/A N/A MISG        N/A
JACKSON        CLOUDY    42  28  57 W9        30.04F
DYERSBURG      CLOUDY    39  21  48 W7        30.05F WCI  34
UNION CITY     CLOUDY    36  28  75 NW7       30.00F WCI  30
PARIS          PTSUNNY   37  27  65 W8        30.01F WCI  31
LEXINGTON      MOSUNNY   41  27  56 VRB7      30.00F
SAVANNAH       SUNNY     41  27  56 NW13      30.04F
$$

TNZ008-025-027-028-033-062-065-066-262000-
NORTH MIDDLE TENNESSEE

CITY           SKY/WX    TMP DP  RH WIND       PRES   REMARKS
NASHVILLE      CLOUDY    34  28  80 NW8       29.99F WCI  27
CLARKSVILLE    CLOUDY    34  28  79 W8        29.99F WCI  27
SMYRNA         CLOUDY    34  29  82 NW13      30.01F WCI  25
COOKEVILLE     CLOUDY    30  28  93 NW7       29.92F WCI  23
CROSSVILLE     CLOUDY    28  25  88 NW7G17    29.87F WCI  21
$$

TNZ061-075-076-078-094-096-097-262000-
SOUTH MIDDLE TENNESSEE

CITY           SKY/WX    TMP DP  RH WIND       PRES   REMARKS
FAYETTEVILLE   CLOUDY    34  28  80 MISG      29.97F
TULLAHOMA      CLOUDY    32  28  86 NW9       29.96F WCI  24
WINCHESTER     CLOUDY    34  28  80 NW9       29.96F WCI  26
MCMINNVILLE    CLOUDY    30  30 100 NW9       29.95F WCI  22
COLUMBIA       CLOUDY    36  36 100 W6        29.97F WCI  31
SHELBYVILLE    CLOUDY    36  30  80 NW9       29.98F WCI  29
$$

TNZ017-018-042-046-047-262000-
NORTHEAST TENNESSEE

CITY           SKY/WX    TMP DP  RH WIND       PRES   REMARKS
TRI CITIES     CLOUDY    35  29  78 W15G22    29.75R WCI  25
ELIZABETHTON   LGT RAIN  34  30  86 W13       29.73R WCI  25
$$

TNZ012-013-036-069-073-074-262000-
CENTRAL EAST TENNESSEE

CITY           SKY/WX    TMP DP  RH WIND       PRES   REMARKS
KNOXVILLE      NOT AVBL
OAK RIDGE      CLOUDY    35  29  78 W7        29.89S WCI  29
GATLINBURG     CLOUDY    32  27  80 NW7       29.84S WCI  26
MORRISTOWN     PTCLDY    32  28  86 NW12      29.82S WCI  23
$$

TNZ083-085-099-262000-
SOUTHEAST TENNESSEE

CITY           SKY/WX    TMP DP  RH WIND       PRES   REMARKS
CHATTANOOGA    CLOUDY    37  28  70 W13       29.94R WCI  29
$$

SKY/WX REPORTED AS FAIR MEANS FEW OR NO CLOUDS BELOW
12 THOUSAND FEET.




USA.gov is the U.S. government's official web portal to all federal, state and local government web resources and services.